Location: Lascours
(43.3422°N, 5.5800°E)
Time: 19:15:12
(UTC+00:00)

Daily predictions for brighter satellites

Satellite Brightness Start Highest point End
(mag) Time Altitude Azimuth Time Altitude Azimuth Time Altitude Azimuth
Aureole 1 Rocket 4.5 19:13:29 10° SW 19:17:48 41° WNW 19:21:15 10° N
Meteor 2-15 Rocket 4.5 19:12:03 10° S 19:18:02 67° E 19:24:04 10° NNE
SJ-6B 2.8 19:15:12 10° SSE 19:19:01 67° ENE 19:22:56 10° N
CZ-2C R/B 4.3 19:19:58 10° N 19:24:57 40° WNW 19:30:00 10° SW
Cosmos 1408 Rocket 3.8 19:21:29 10° N 19:25:53 78° W 19:30:17 10° S
Cosmos 1570 Rocket 4.2 19:20:48 10° NNW 19:26:03 75° WSW 19:31:15 10° SSE
USA 290 4.4 19:26:02 10° NNE 19:27:53 14° ENE 19:29:44 10° E
Cosmos 1842 Rocket 3.7 19:23:42 10° S 19:28:10 82° W 19:32:41 10° N
Ariane Rocket 3.2 19:23:49 10° SSE 19:28:45 58° ENE 19:33:44 10° N
Cosmos 921 Rocket 3.6 19:24:58 10° NNW 19:29:10 58° WSW 19:33:17 10° S
Meteor 2-2 Rocket 4.4 19:24:44 10° SSW 19:30:24 82° W 19:36:04 10° N
Cosmos 2263 Rocket 3.9 19:26:01 10° SW 19:31:09 37° WNW 19:36:20 10° N
IRIS 3.9 19:30:29 10° WSW 19:32:45 49° S 19:35:29 10° E
FALCON 9 DEB 2.8 19:29:53 10° NW 19:32:56 77° NNE 19:35:41 12° ESE
Cosmos 1943 4.1 19:27:52 10° NW 19:33:18 49° WSW 19:38:42 10° S
Cosmos 1606 2.7 19:30:24 10° S 19:34:05 58° E 19:37:49 10° NNE
Helios 1A Rocket 4.2 19:30:46 10° S 19:34:41 42° W 19:38:39 10° NNW
Cosmos 1844 Rocket 2.8 19:30:30 10° S 19:35:54 54° ESE 19:41:20 10° NNE
SL-4 R/B 2.3 19:37:06 10° WNW 19:41:29 85° NNE 19:45:35 13° ESE
Cosmos 1805 Rocket 3.9 19:39:25 10° N 19:43:36 46° ENE 19:47:34 11° SSE
X-37B 1.0 19:41:16 10° W 19:44:27 61° N 19:47:37 10° E
ARIANE 5 R/B 4.5 19:43:08 10° E 19:45:42 16° ENE 19:48:18 10° NNE
IRS-1A Rocket 4.4 19:44:27 10° SSE 19:50:12 88° WSW 19:56:06 10° NNW
Cosmos 1633 Rocket 4.5 19:48:29 10° NNE 19:51:56 22° ENE 19:54:17 15° ESE
Cosmos 1745 Rocket 4.1 19:46:33 10° N 19:52:42 60° E 19:58:40 10° SSE
SPOT 3 Rocket 3.9 19:49:01 12° SE 19:53:34 50° ENE 19:58:33 10° N
ERS-2 4.3 19:52:03 10° N 19:55:14 29° WNW 19:58:24 10° SW
Resurs 1-3 3.6 19:51:21 10° SSE 19:55:43 87° WSW 20:00:08 10° NNW
Cosmos 1844 3.7 19:50:25 10° S 19:56:05 65° ESE 20:01:43 10° NNE
Landsat 7 4.3 19:52:36 14° SE 19:56:21 44° ENE 20:00:53 10° N
Cosmos 968 Rocket 3.5 19:51:39 10° SSW 19:56:54 87° WNW 20:02:10 10° NNE
Cosmos 1743 Rocket 3.9 19:53:25 10° NNW 19:57:43 67° W 20:02:02 10° S
BREEZE-M DEB (TANK) 4.0 19:54:22 10° WNW 19:58:39 82° NNE 20:06:54 10° ESE
ATLAS 5 CENTAUR R/B 3.0 19:55:29 10° NNW 20:00:48 44° NE 20:05:41 16° ESE
NOSS 3-3 (A) 4.5 19:56:02 10° S 20:00:55 31° ESE 20:06:20 10° NE
BREEZE M DEB (TANK) 4.5 20:00:23 10° W 20:04:07 61° N 20:16:19 10° ENE
Cosmos 1486 Rocket 4.0 19:59:06 10° SSW 20:04:25 87° ESE 20:09:48 10° NNE
Intercosmos 25 Rocket 4.1 20:00:35 10° N 20:07:08 80° W 20:11:06 10° S
IGS 5A 3.5 20:04:31 17° SSE 20:07:33 62° ENE 20:11:40 10° N
Cosmos 1500 Rocket 4.5 20:05:26 10° NNW 20:09:40 48° W 20:13:51 10° SSW
Cosmos 2315 Rocket 4.5 20:04:39 13° SSE 20:10:00 43° E 20:15:59 10° NNE
Cosmos 1833 Rocket 4.3 20:06:09 10° N 20:10:26 21° NE 20:14:00 13° E
S3M 4.0 20:04:16 10° S 20:10:39 82° E 20:17:02 10° N
BREEZE-M R/B 2.0 20:09:37 10° WSW 20:12:18 65° NNW 20:14:44 10° ENE
Cosmos 1666 Rocket 3.9 20:13:26 10° N 20:17:44 48° ENE 20:19:58 25° SE
FALCON 9 DEB 4.2 20:16:16 10° WNW 20:18:57 29° SW 20:20:03 22° S
Cosmos 1933 3.2 20:17:11 10° S 20:21:10 84° E 20:25:13 10° N
USA 245 3.4 20:23:48 26° NE 20:23:48 26° NE 20:25:28 10° N
Cosmos 1242 Rocket 2.4 20:24:03 17° S 20:26:43 83° E 20:30:18 10° NNE
OBJECT-B 3.7 20:25:04 10° SW 20:26:53 14° W 20:28:42 10° WNW
Cosmos 1437 Rocket 4.2 20:27:09 10° SW 20:30:45 38° WNW 20:34:27 10° N
BREEZE M DEB (TANK) 3.8 20:27:35 10° WNW 20:32:17 31° N 20:34:07 14° ENE
Resurs 01 Rocket 2.1 20:29:42 16° S 20:33:06 60° W 20:37:31 10° NNW
FALCON 9 DEB 4.3 20:31:26 10° WNW 20:34:02 25° SW 20:34:36 24° SSW
Spot 2 Rocket 3.7 20:34:12 28° SE 20:36:41 56° ENE 20:41:37 10° N
SJ 16-02 3.1 20:38:19 17° E 20:38:19 17° E 20:40:29 10° NE
DELTA 2 R/B (1) 3.9 20:34:18 10° W 20:39:37 48° SSW 20:41:51 31° SE
Sich 1 3.6 20:35:46 10° NNW 20:40:00 55° W 20:43:00 19° SSW
COSMOS 2406 4.2 20:35:59 10° N 20:41:08 34° NE 20:43:43 23° E
Meteor 1-20 Rocket 4.5 20:37:34 10° NNW 20:43:10 67° W 20:47:10 19° S
Cosmos 2082 Rocket 3.9 20:39:30 10° N 20:43:39 21° NE 20:46:28 15° E
Cosmos 1782 2.7 20:43:16 29° S 20:45:14 85° E 20:49:15 10° N
BREEZE-M DEB (TANK) 4.5 20:44:00 10° WSW 20:45:33 14° SSW 20:45:33 14° SSW
CZ-4C R/B 3.5 20:39:16 10° NNW 20:46:14 50° NE 20:51:18 23° ESE
Cosmos 1500 3.5 20:43:04 10° N 20:46:42 46° ENE 20:47:10 43° ESE
ERS-1 Rocket 3.3 20:50:52 35° SE 20:52:37 52° ENE 20:57:30 10° N
SPOT 5 3.3 20:52:52 36° SE 20:54:36 53° ENE 20:59:40 10° N
H-2A R/B 4.4 20:54:24 10° NNE 20:57:49 32° E 20:57:49 32° E
Cosmos 1271 Rocket 4.1 21:00:22 25° ENE 21:00:22 25° ENE 21:03:02 10° NNE
Cosmos 1151 Rocket 3.3 20:58:03 23° SSW 21:00:41 65° W 21:05:02 10° N
Cosmos 1777 Rocket 3.9 20:58:39 34° S 21:00:50 63° ESE 21:05:59 10° NNE
USA 290 3.6 20:59:31 10° NW 21:02:26 31° WSW 21:02:58 29° SW
Terra 2.3 21:02:23 38° ESE 21:03:26 44° ENE 21:07:58 10° N
Cosmos 1602 4.5 21:01:19 10° NNW 21:05:02 47° W 21:06:20 33° SW
Cosmos 2278 Rocket 2.3 21:05:44 39° SSE 21:07:22 52° ESE 21:12:51 10° NE
Cosmos 1515 Rocket 3.4 21:17:35 60° S 21:18:23 86° E 21:22:49 10° N
SPOT 1/Viking Rocket 4.4 21:16:47 26° SSW 21:19:22 45° W 21:24:22 10° NNW
Cosmos 2084 3.5 21:17:53 23° SW 21:20:22 75° NW 21:24:38 10° NE
SL-4 R/B 4.0 21:17:25 10° W 21:20:47 20° SW 21:21:08 20° SW
X-37B 1.8 21:18:00 10° WNW 21:20:09 39° W 21:20:09 39° W
ARIANE 5 R/B 3.0 21:20:40 42° SSW 21:21:44 54° W 21:26:00 10° NNW
USA 308 4.5 21:18:48 10° NW 21:22:38 30° NNE 21:24:24 22° ENE
Meteor 1-10 Rocket 4.2 21:22:59 50° SSE 21:24:15 64° E 21:29:49 10° NNE
Cosmos 1536 4.3 21:20:52 10° NNE 21:23:48 25° ENE 21:23:48 25° ENE
Cosmos 1437 4.2 21:25:46 31° WNW 21:25:46 31° WNW 21:28:01 10° N
Cosmos 1943 Rocket 4.3 21:30:25 12° ENE 21:30:25 12° ENE 21:31:15 10° ENE
Cosmos 1633 Rocket 4.4 21:25:50 10° NNW 21:29:47 33° W 21:31:23 25° SW
Cosmos 2154 Rocket 4.3 21:25:24 10° N 21:31:35 52° ENE 21:33:02 43° ESE
Cosmos 1812 3.0 21:31:31 57° WSW 21:31:49 59° W 21:35:38 10° N
Cosmos 1470 Rocket 4.3 21:34:49 10° NNW 21:39:07 47° W 21:39:56 42° SW
Cosmos 2184 Rocket 3.9 21:33:23 10° N 21:39:39 85° E 21:41:19 52° SSE
Meteor 1-5 Rocket 4.2 21:35:24 10° NNW 21:40:46 68° W 21:42:00 51° SSW
NOSS 3-4 (A) 4.2 21:37:05 10° NNW 21:43:59 59° NE 21:47:02 36° ESE
NOSS 3-4 (C) 4.2 21:37:12 10° NNW 21:44:05 58° NE 21:47:09 36° ESE
ATLAS 5 CENTAUR R/B 3.2 21:40:05 10° NW 21:45:32 40° WSW 21:47:13 34° SSW
Cosmos 2074 Rocket 4.0 21:41:17 10° N 21:47:37 81° W 21:49:23 50° S
Cosmos 1666 3.5 21:49:08 10° NNW 21:52:11 46° WNW 21:52:11 46° WNW
Nadezhda 1 Rocket 3.9 21:51:52 56° SSE 21:53:15 77° E 21:59:32 10° N
Cosmos 1933 Rocket 4.1 21:49:29 10° NNW 21:53:41 49° W 21:53:49 49° W
Cosmos 1833 Rocket 2.7 21:49:17 10° NNW 21:54:54 68° WSW 21:55:42 60° SSW
ATLAS 2AS CENTAUR R/B 3.5 21:50:26 10° NNW 21:57:30 45° NE 22:00:32 29° E
Meteor 2-12 Rocket 4.3 21:51:51 10° N 21:57:57 89° E 21:59:02 63° S
Cosmos 1743 4.4 21:54:34 10° NNE 21:56:52 26° NE 21:56:52 26° NE
Cosmos 1538 Rocket 4.2 21:58:11 10° NNW 22:03:29 59° WSW 22:03:56 57° SW
Iridium 4 Rocket 4.4 22:01:47 36° SW 22:03:42 50° W 22:09:25 10° N
USA 305 3.6 22:00:44 10° NW 22:04:41 51° NNE 22:04:41 51° NNE
Cosmos 1610 Rocket 4.3 22:03:30 10° N 22:09:40 85° W 22:10:38 65° S
SJ 16-02 2.3 22:15:15 42° W 22:15:41 43° WNW 22:19:56 10° N
Cosmos 158 Rocket 3.9 22:10:53 10° NNW 22:15:27 71° WNW 22:15:27 71° WNW
Cosmos 1733 Rocket 4.3 22:12:57 10° N 22:16:02 33° NE 22:16:02 33° NE
Cosmos 2228 Rocket 3.7 22:17:34 51° WNW 22:17:34 51° WNW 22:21:44 10° N
Meteor 1-27 Rocket 3.9 22:18:37 60° SW 22:19:33 72° WNW 22:25:28 10° N
Cosmos 1680 Rocket 3.6 22:16:09 10° NNW 22:21:27 67° ENE 22:21:27 67° ENE
Cosmos 2341 Rocket 4.0 22:16:03 10° N 22:22:26 66° E 22:23:08 61° ESE
Cosmos 1937 Rocket 4.4 22:24:06 38° ENE 22:24:06 38° ENE 22:27:44 10° NNE
USA 306 3.7 22:19:49 10° NW 22:23:05 49° NNW 22:23:05 49° NNW
COSMOS 2406 4.0 22:20:16 10° NW 22:25:27 38° WSW 22:25:47 37° WSW
Cosmos 2082 Rocket 2.1 22:22:42 10° NNW 22:28:18 71° WSW 22:28:19 71° WSW
CZ-4C R/B 3.5 22:27:51 10° NW 22:35:00 47° WSW 22:36:28 43° SW
Meteor 1-19 Rocket 4.5 22:40:49 53° ENE 22:40:49 53° ENE 22:45:27 10° NNE
Terra 3.7 22:41:15 21° W 22:41:23 21° W 22:44:56 10° NW
Cosmos 2218 Rocket 4.1 22:35:27 10° N 22:41:39 60° E 22:42:06 59° E
USA 307 4.4 22:45:09 10° NW 22:47:31 32° NW 22:47:31 32° NW
Cosmos 1340 Rocket 4.3 22:47:04 10° NNW 22:49:40 34° NW 22:49:40 34° NW
Cosmos 2278 Rocket 4.0 22:47:29 12° WSW 22:51:45 26° NW 22:56:29 10° N
Spot 4 4.2 22:53:27 61° NW 22:53:27 61° NW 22:57:35 10° NNW
Cosmos 1898 Rocket 3.8 22:57:39 64° WNW 22:57:39 64° WNW 23:02:50 10° NNE
Cosmos 2369 Rocket 3.1 23:03:27 38° ENE 23:03:27 38° ENE 23:07:33 10° NE
COBE Rocket 4.3 23:07:04 60° NNE 23:07:04 60° NNE 23:11:32 10° N
Meteor 2-9 Rocket 4.2 23:05:01 10° NNW 23:10:35 80° NW 23:10:35 80° NW
SL-8 Rocket 4.0 23:05:00 10° NNW 23:11:18 70° W 23:11:34 69° WSW
Cosmos 1943 Rocket 2.2 23:11:55 78° N 23:11:55 78° N 23:17:11 10° NNE
Cosmos 1975 4.5 23:09:57 10° N 23:12:12 32° N 23:12:12 32° N
ALOS 2 3.6 23:16:05 43° NNW 23:16:05 43° NNW 23:19:07 10° NNW
DNEPR-1 R/B 4.2 23:19:56 74° N 23:19:56 74° N 23:24:41 10° NNE
Meteor 2-4 Rocket 3.8 23:20:31 71° ENE 23:20:31 71° ENE 23:25:49 10° NNE
Cosmos 44 3.9 23:16:22 10° NW 23:20:48 59° NW 23:20:48 59° NW
Okean 1-7 4.4 23:30:15 35° NNE 23:30:15 35° NNE 23:32:52 10° NNE
Cosmos 372 Rocket 4.3 23:30:36 62° N 23:30:36 62° N 23:34:52 10° NNE
Cosmos 1656 Rocket 4.3 23:39:04 46° ENE 23:39:04 46° ENE 23:43:24 10° NNE
SeaSat 1 2.9 23:34:24 10° NNE 23:38:19 56° NE 23:38:19 56° NE
USA 215 3.2 23:42:20 60° ESE 23:43:39 85° NE 23:50:14 10° NW
ATLAS 2AS CENTAUR R/B 3.2 23:41:40 10° NW 23:47:57 45° WSW 23:47:57 45° WSW
CZ-2D R/B 4.3 23:50:38 10° ENE 23:53:29 14° E 23:53:55 14° E
